Location: Auckland
(36.8670°S, 174.7670°E)
Time: 18:49:17
(UTC+12:00)

Tiros 1 despin weight - Pass Details

Date: 25 July 2019
Orbit: 594 x 642 km, 48.2° (Epoch: 26 August)

Event Time Altitude Azimuth Distance (km) Brightness Sun altitude
Rises 06:29:19 0° 250° (WSW) 2,880 - -11.4°
Reaches altitude 10° 06:32:12 10° 268° (W) 1,977 - -10.8°
Exits shadow 06:32:51 12° 275° (W) 1,817 ? -10.7°
Maximum altitude 06:35:17 18° 311° (NW) 1,516 ? -10.2°
Drops below altitude 10° 06:38:24 10° 355° (N) 1,983 ? -9.6°
Sets 06:41:19 0° 13° (NNE) 2,891 ? -9.1°
